COSMOS 1192

Satellite information

Favourite Embed

Satellite Type and Status

PAYLOADIN ORBIT

Key statistics

Satellite COSMOS 1192 at a glance.

Uptime

16551

Days in orbit

Revolutions

≈ 12.6

Per day

Orbit

LEO

Low Earth Orbit

Inclination

74.0

Latest

Satellite identification and parameters

Extended collection of information and parameters for COSMOS 1192.

Object identification

Identified? True

Debris? False

Object name: COSMOS 1192

International designator: 1980-058A

Object number (NORAD): 11875

Object ID (CCSDS): 11875

Country: COMMONWEALTH OF INDEPENDENT STATES (CIS)

Current information (Y/N): Y

RCS size: MEDIUM

Orbital parameters

Period: 114.54 minutes

Inclination: 74.0181 deg

SMA: 7812.639 km

Apoapsis: 1472.596 km

Periapsis: 1396.412 km

RAAN: 323.8081 deg

Eccentricy: 0.0048757

Argument of periapsis: 108.5183 deg

Mean anomaly: 64.1842 deg

Mean motion: 12.57205025 rev/day

Mean motion (dot): 0.00000015 rev/day2

B* drag term: 0.00018237 1/REarth

Two-line elements (TLE)

Creation date: Oct. 31, 2025, 11:06 p.m.

Reference frame: TEME

Reference center: EARTH

Epoch: Oct. 31, 2025, 7:48 p.m. UTC

TLE line 0: 0 COSMOS 1192

TLE line 1: 1 11875U 80058A 25304.82560661 .00000015 00000-0 18237-3 0 9991

TLE line 2: 2 11875 74.0181 323.8081 0048757 108.5183 64.1842 12.57205025 79603

Live tracking on map

Real-time ground track for satellite COSMOS 1192.

In-orbit conjunctions

A list of the most updated potential collisions computed for object COSMOS 1192.

Target Orbit TCA Probability of collision Miss distance Type
COSMOS 828 LEO 2025-03-06 21:27:49 0.0005968779 64.0 (m) PAYLOAD
SL-14 DEB LEO 2024-06-01 18:09:59 0.01883946 22.0 (m) DEBRIS

Associated space launch

Optical film-return reconnaissance satellite

COSMOS 1192 was lifted into orbit during the mission ‘Soyuz U | Zenit-6U 22’, on board a Soyuz U space rocket.

The launch took place on July 9, 1980, 12:40 p.m. from 41/1.

For more information about the launch, click the button.

Launch to space Soyuz U | Zenit-6U 22
Soyuz U | Zenit-6U 22

Agency: N/A

Status: Launch Successful

Launch date: July 9, 1980, 12:40 p.m. UTC

Rocket: Soyuz U

Launch pad: 41/1

Location: Plesetsk Cosmodrome, Russian Federation

...

Latest news about this satellite

There are no fresh news available about this satellite. Check back as we update our databases every day.


Newsletter sign-up

Weekly statistics, charts and insights to help you stay on top of the space industry.